Home > Weather > Anaheim > Past weeks

Flag for USA Weather for the Past 2 Weeks in Anaheim, California, USA

Now
65 °F

Partly sunny.


Feels Like: 65 °F
Forecast: 54 / 72 °F
Wind: No wind

Location: Fullerton Municipal Airport

Current Time: May 1, 2016 at 10:32:59 AM

Latest Report: May 1, 2016 at 9:53 AM


Visibility: 10 mi

Pressure: 29.92 "Hg

Humidity: 61%

Dew Point: 51 °F

Location of AnaheimLocation

Historic Weather in Anaheim — Graph

°F

Anaheim Temperature Yesterday

Maximum temperature yesterday: 71 °F (at 2:53 PM)
Minimum temperature yesterday: 56 °F (at 7:04 AM)
Average temperature yesterday: 63 °F

High & Low Weather Summary for the Past Weeks

 TemperatureHumidityPressure
High91 °F (Apr 17, 12:53 PM)90% (Apr 30, 7:04 AM)30.05 "Hg (Apr 30, 7:04 AM)
Low52 °F (Apr 26, 4:53 AM)5% (Apr 17, 12:53 PM)29.73 "Hg (Apr 27, 11:53 PM)
Average67 °F47%29.91 "Hg
* Reported Apr 16 8:53 AM — May 1 8:53 AM, Anaheim, Weather by CustomWeather, © 2016

Note: Actual official high and low records may vary slightly from our data, if they occured in-between our weather recording intervals... More about our weather records

Advertising

Anaheim Weather History for the Previous 24 Hours

Scroll right to see more
 ConditionsComfort  
Time TempWeatherWind HumidityBarometerVisibility
8:53 AM
Sun, May 1
64 °FScattered clouds.6 mph63%29.91 "Hg10 mi
7:53 AM61 °FScattered clouds.3 mph70%29.90 "Hg10 mi
6:53 AM59 °FPassing clouds.5 mph75%29.88 "Hg10 mi
5:53 AM59 °FOvercast.5 mph72%29.85 "Hg10 mi
4:53 AM59 °FPassing clouds.6 mph72%29.85 "Hg10 mi
3:53 AM59 °FPassing clouds.3 mph75%29.84 "Hg10 mi
2:53 AM58 °FPassing clouds.3 mph75%29.83 "Hg10 mi
1:53 AM59 °FClear.No wind78%29.83 "Hg10 mi
12:53 AM60 °FPassing clouds.No wind72%29.85 "Hg10 mi
11:53 PM
Sat, Apr 30
60 °FClear.No wind75%29.84 "Hg10 mi
10:53 PM60 °FPassing clouds.No wind75%29.84 "Hg10 mi
9:53 PM60 °FPassing clouds.3 mph75%29.83 "Hg10 mi
8:53 PM61 °FPassing clouds.3 mph72%29.81 "Hg10 mi
7:53 PM63 °FSunny.8 mph63%29.79 "Hg10 mi
6:53 PM67 °FScattered clouds.5 mph44%29.79 "Hg10 mi
5:53 PM69 °FSunny.7 mph42%29.77 "Hg10 mi
4:53 PM71 °FSunny.5 mph41%29.76 "Hg10 mi
3:53 PM71 °FSunny.5 mph42%29.76 "Hg10 mi
2:53 PM71 °FPassing clouds.10 mph42%29.78 "Hg10 mi
1:53 PM70 °FScattered clouds.9 mph47%29.79 "Hg10 mi
12:53 PM69 °FPartly sunny.9 mph49%29.80 "Hg10 mi
11:53 AM65 °FPartly sunny.8 mph56%29.81 "Hg10 mi
10:53 AM66 °FPartly sunny.6 mph54%29.82 "Hg10 mi
Weather by CustomWeather, © 2016

See weather overviewHow to use our weather pages